CAPE
373 65 123 225 209 13 0 0 0 111 331 94 340 183 232 121 45 60 17 25 86 89 77 78 169 296 433 768 889 892 916 818 853 1106 1120 928 935 730 496 502 1189 824 883
276 212 99 11 14 23 0 5 36 101 220 153 121 139 205 68 0 0 16 115 149 146 92 88 48 107 275 397 481 463 432 604 447 535 971 1070 899 753 507 699 644 391 617
504 428 507 240 64 31 45 21 109 163 187 126 143 195 191 134 147 36 46 3 277 466 151 250 250 88 110 350 213 287 359 407 782 756 497 595 863 862 839 744 680 773 811
806 836 930 708 501 322 214 135 76 106 95 47 6 34 366 317 363 152 124 136 245 598 640 631 373 239 156 199 289 225 331 384 355 442 655 542 578 698 579 800 701 789 649
341 596 1148 882 749 500 436 212 97 56 41 99 35 68 378 274 469 644 398 234 456 423 373 643 424 404 325 209 253 236 240 245 467 378 457 303 256 474 330 367 557 388 600
401 617 1261 977 544 375 435 325 178 92 111 273 491 445 405 154 429 10 6 217 545 535 301 309 298 299 314 192 192 217 196 257 331 264 379 180 281 169 231 263 441 346 337
766 1169 1205 1009 588 689 587 489 318 307 409 350 434 419 299 398 474 381 6 342 566 585 414 333 332 189 332 340 315 329 345 444 595 421 230 97 77 20 95 182 181 260 265
1306 1492 1124 781 585 947 922 706 578 481 524 513 332 69 456 559 602 523 178 315 472 593 585 512 463 315 200 269 304 403 480 659 740 718 550 314 104 8 28 0 65 140 181
1430 1434 1228 1108 659 705 725 895 602 386 593 525 321 91 276 216 565 493 376 345 470 571 476 509 483 409 369 333 300 351 427 334 504 504 445 300 202 140 99 76 25 13 24
1769 1643 1424 888 866 748 864 860 1006 962 620 841 853 846 479 353 317 345 535 551 536 596 464 498 407 354 316 254 349 319 332 271 306 394 399 326 275 183 141 122 145 119 45
1549 1544 1300 1010 684 734 982 1040 1084 1017 1120 1036 996 1106 988 458 285 335 438 569 460 432 384 451 309 229 205 133 106 135 128 93 69 35 0 0 0 18 48 70 123 234 179
1425 1590 1227 795 623 1123 715 1013 727 816 789 725 629 280 582 828 617 321 286 396 371 326 256 305 249 169 80 63 25 0 0 0 0 0 0 0 0 0 0 0 0 0 15
1298 1237 1413 761 773 1044 775 778 728 810 556 565 362 76 2 0 0 172 247 228 264 192 191 178 175 121 45 20 0 0 0 0 0 0 0 0 0 0 0 0 0 0 0
1516 1146 1667 1261 799 661 1199 833 705 825 436 32 105 69 0 0 0 1 159 183 163 128 127 106 89 77 2 0 0 0 0 0 0 0 0 0 0 0 0 0 0 0 0
1729 1733 1239 1785 1469 1153 989 992 857 829 768 399 70 4 16 5 0 0 0 122 152 125 126 89 111 34 0 0 0 0 0 0 0 0 0 0 0 0 0 0 0 0 0
1598 1772 1376 1912 2018 1893 1326 1089 1139 1087 726 197 16 67 0 0 0 0 0 0 0 0 18 88 71 17 0 0 0 0 0 0 0 0 0 0 0 0 0 0 0 0 0
1537 1764 1513 1791 2287 2283 1826 1820 1494 1473 1264 453 103 84 39 0 0 0 0 0 0 0 1 58 7 0 0 0 0 0 0 0 0 0 0 0 0 0 0 0 0 0 0
1380 1888 1918 1891 1947 2256 2184 2067 2020 1789 1429 929 273 74 46 3 0 0 0 0 0 0 0 0 0 0 0 0 0 0 0 0 0 0 0 0 0 0 0 0 0 0 0
1602 1993 2146 2338 2065 2019 2161 2341 2116 2190 1756 1164 462 68 54 29 4 0 0 0 0 0 0 0 0 0 0 0 0 0 0 0 0 0 0 0 0 0 0 0 0 0 0
1562 1742 1928 2341 2568 2565 2493 2511 2588 2391 1611 1050 487 246 127 46 33 0 0 0 0 0 0 0 0 0 0 0 0 0 0 0 0 0 0 0 0 0 0 0 0 0 0
1483 1291 1303 1549 1816 2187 2749 2899 2837 2380 1759 1180 652 480 264 89 1 0 0 0 0 0 0 0 0 0 0 0 0 0 0 0 0 0 0 0 0 0 0 0 0 0 0
2032 1977 1858 1743 1703 1966 2106 2232 2207 1824 1440 650 190 118 243 145 0 0 0 0 0 0 0 0 0 0 0 0 0 0 0 0 0 0 0 0 0 0 0 0 0 0 0
2136 2080 2040 2070 2049 2061 2154 1987 1756 1361 736 462 137 47 165 57 0 0 0 0 0 0 0 0 0 0 0 0 0 0 0 0 0 0 0 0 0 0 0 0 0 0 0
1784 2003 2294 2521 2163 1130 909 1110 1041 1163 725 38 16 19 76 0 0 0 0 0 0 0 0 0 0 0 0 0 0 0 0 0 0 0 0 0 0 0 5 6 5 0 0
903 1101 969 995 903 256 5 142 200 164 144 289 254 133 20 0 0 0 0 0 0 0 0 0 0 0 0 0 0 0 0 0 0 0 8 2 0 8 4 7 2 2 0
29 14 74 305 432 259 14 140 9 0 0 55 95 4 0 12 0 0 0 0 0 0 0 0 0 0 0 0 0 0 0 0 0 0 0 0 0 0 0 0 0 0 0
CIN
-49 -146 -98 -79 -81 -63 0 0 0 -86 -41 -57 -49 -65 -62 -58 -68 -72 -43 -74 -31 -10 -13 -13 -10 -5 0 0 0 0 0 0 0 0 0 0 0 -4 -13 -22 0 -4 -1
-50 -76 -84 -111 -125 -104 0 -72 -75 -65 -42 -51 -68 -66 -57 -66 0 0 -71 -57 -33 -9 -9 -9 -12 -14 -3 0 0 -1 -2 0 -4 -1 -1 0 0 -2 -13 -4 -5 -21 -7
-38 -75 -55 -70 -109 -137 -125 -127 -67 -47 -25 -54 -63 -51 -59 -85 -88 -130 -138 -6 -42 -7 -13 -2 -1 -7 -4 0 -5 -11 -9 -11 0 0 -4 -3 -1 0 0 -1 -3 -1 -1
-53 -41 -34 -28 -58 -84 -115 -99 -103 -69 -47 -88 -152 -133 -72 -100 -79 -148 -138 -117 -57 -9 -3 0 -1 -3 -11 -9 -3 -17 -14 -20 -23 -7 -2 -5 -4 0 -2 0 0 -1 -3
-60 -48 -29 -39 -50 -76 -90 -97 -117 -112 -112 -87 -111 -94 -64 -105 -55 -74 -124 -119 -68 -35 -23 -3 -8 -2 0 -1 -13 -10 -11 -14 -3 -6 -5 -12 -14 -5 -9 -9 -2 -6 -2
-61 -51 -25 -39 -55 -81 -61 -65 -78 -106 -83 -52 -23 -32 -69 -141 -100 -187 -110 -112 -56 -35 -39 -36 -29 -21 -12 -26 -12 -2 -11 -6 -4 -8 -4 -13 -9 -16 -12 -11 -5 -6 -7
-54 -35 -26 -37 -57 -37 -44 -47 -59 -47 -43 -61 -38 -44 -79 -80 -77 -102 -249 -98 -53 -32 -34 -50 -39 -45 -18 -2 -2 0 0 0 0 -3 -13 -42 -48 -70 -25 -13 -15 -8 -8
-42 -25 -30 -40 -61 -35 -37 -46 -46 -52 -39 -42 -44 -130 -29 -20 -37 -65 -153 -100 -57 -33 -35 -39 -29 -37 -44 -23 -18 -3 -2 0 0 0 0 -6 -55 -111 -68 0 -23 -23 -15
-37 -19 -23 -29 -51 -48 -42 -38 -55 -71 -29 -41 -82 -148 -109 -112 -31 -53 -77 -78 -57 -42 -43 -40 -34 -36 -41 -42 -35 -16 -2 -9 -2 -5 -1 -3 -14 -18 -26 -37 -68 -82 -54
-29 -13 -16 -37 -40 -39 -36 -46 -45 -39 -46 -22 -36 -49 -114 -137 -107 -81 -53 -43 -50 -36 -45 -40 -51 -60 -47 -50 -31 -25 -17 -19 -8 0 0 0 -3 -11 -2 -9 -7 -11 -26
-32 -23 -19 -31 -71 -62 -39 -35 -34 -41 -37 -45 -44 -33 -45 -124 -149 -105 -65 -37 -58 -41 -42 -47 -62 -79 -89 -119 -124 -72 -56 -51 -50 -56 0 0 0 -8 -1 -1 -2 0 0
-47 -38 -44 -85 -119 -46 -89 -53 -88 -72 -73 -96 -109 -164 -91 -47 -61 -88 -82 -57 -42 -45 -60 -49 -53 -71 -114 -126 -149 0 0 0 0 0 0 0 0 0 0 0 0 0 -12
-56 -64 -58 -111 -122 -84 -88 -80 -87 -86 -131 -116 -128 -193 -91 0 0 -99 -63 -56 -43 -58 -53 -65 -72 -105 -147 -187 0 0 0 0 0 0 0 0 0 0 0 0 0 0 0
-43 -55 -59 -83 -121 -142 -60 -98 -126 -112 -169 -101 -183 -188 0 0 0 -4 -77 -57 -46 -33 -52 -50 -104 -118 -22 0 0 0 0 0 0 0 0 0 0 0 0 0 0 0 0
-44 -61 -62 -57 -83 -84 -112 -119 -127 -108 -107 -164 -218 -82 -249 -285 0 0 0 -72 -29 -18 -30 -70 -68 -159 0 0 0 0 0 0 0 0 0 0 0 0 0 0 0 0 0
-43 -58 -71 -56 -61 -66 -100 -128 -103 -103 -134 -211 -247 -202 0 0 0 0 0 0 0 0 -47 -68 -104 -171 0 0 0 0 0 0 0 0 0 0 0 0 0 0 0 0 0
-68 -62 -76 -62 -60 -62 -89 -82 -89 -82 -91 -175 -214 -183 -204 -48 0 0 0 0 0 0 -122 -89 -35 0 0 0 0 0 0 0 0 0 0 0 0 0 0 0 0 0 0
-112 -86 -66 -61 -64 -53 -57 -68 -53 -64 -81 -108 -160 -198 -210 -59 0 0 0 0 0 0 0 0 0 0 0 0 0 0 0 0 0 0 0 0 0 0 0 0 0 0 0
-101 -78 -65 -51 -56 -53 -52 -44 -57 -45 -42 -62 -92 -150 -178 -193 -198 0 0 0 0 0 0 0 0 0 0 0 0 0 0 0 0 0 0 0 0 0 0 0 0 0 0
-116 -85 -65 -47 -39 -32 -29 -26 -26 -31 -44 -59 -77 -23 -135 -174 -164 0 0 0 0 0 0 0 0 0 0 0 0 0 0 0 0 0 0 0 0 0 0 0 0 0 0
-136 -138 -108 -86 -65 -50 -29 -20 -18 -30 -39 -44 -100 -66 -115 -175 -58 0 0 0 0 0 0 0 0 0 0 0 0 0 0 0 0 0 0 0 0 0 0 0 0 0 0
-114 -110 -107 -91 -78 -70 -76 -57 -27 -28 -37 -121 -172 -206 -95 -143 -1 0 0 0 0 0 0 0 0 0 0 0 0 0 0 0 0 0 0 0 0 0 0 0 0 0 0
-135 -133 -131 -125 -109 -81 -60 -39 -38 -23 -57 -133 -231 -298 -160 -149 0 0 0 0 0 0 0 0 0 0 0 0 0 0 0 0 0 0 0 0 0 0 0 -17 0 0 0
-128 -104 -101 -101 -114 -194 -239 -214 -158 -62 -31 -66 -231 -156 -157 0 0 0 0 0 0 0 0 0 0 0 0 0 0 0 0 0 0 0 0 0 0 0 -74 -76 -64 -15 0
-185 -178 -202 -196 -216 -369 -486 -393 -390 -393 -292 -59 -70 -133 -171 0 0 0 0 0 0 0 0 0 0 0 0 0 0 0 0 0 0 0 -90 -53 0 -45 -68 -59 -107 -81 0
-377 -419 -325 -301 -290 -336 -550 -499 -567 0 -18 -495 -266 -207 0 -185 0 0 0 0 0 0 0 0 0 0 0 0 0 0 0 0 0 0 0 0 0 0 0 0 0 0 0
Wind_Speed
16 16 17 14 13 12 15 21 22 22 18 19 19 18 19 19 19 17 18 21 20 19 13 12 18 18 20 19 22 23 22 22 22 21 7 7 6 7 6 6 7 9 17
16 16 17 17 13 11 15 18 21 22 20 20 19 17 18 18 17 17 19 20 20 18 5 15 17 16 13 16 18 20 20 20 20 20 19 11 6 6 7 7 6 8 10
15 16 13 14 12 13 15 18 22 23 23 22 20 19 19 19 18 18 19 19 18 18 14 13 16 16 19 15 12 15 16 15 13 16 17 16 12 6 5 8 9 7 5
15 14 13 12 14 15 17 20 23 25 24 23 21 20 20 20 18 19 20 19 18 18 19 19 18 18 14 15 16 14 10 10 7 7 9 14 13 15 9 8 10 9 9
15 15 15 16 17 20 21 23 24 24 24 23 22 21 19 18 18 20 21 18 19 18 19 20 20 17 21 19 17 16 12 7 6 7 6 7 5 11 11 8 4 6 8
16 15 17 18 21 22 24 24 24 24 24 24 22 20 19 19 18 18 17 17 18 18 19 19 19 20 22 21 20 20 17 15 14 14 11 5 8 5 1 3 2 13 13
16 17 17 18 20 21 22 23 24 24 24 23 21 20 19 18 17 17 18 18 17 18 18 19 18 19 19 20 19 19 18 17 16 16 13 11 4 12 8 15 13 22 20
17 17 18 19 19 20 21 21 21 21 21 22 20 21 20 19 17 16 17 17 16 17 17 16 16 18 18 17 16 14 13 14 13 13 12 10 13 8 4 2 5 15 23
17 17 18 19 20 20 20 20 20 20 20 21 22 19 19 17 18 17 16 16 15 14 15 15 15 15 14 14 14 13 12 10 8 7 8 8 10 12 7 4 6 3 23
18 19 20 20 20 20 20 20 20 18 19 20 19 17 16 18 17 16 14 14 14 13 12 12 13 13 13 12 12 11 11 11 11 11 11 14 16 17 16 16 7 15 29
19 20 20 20 20 19 19 20 19 19 20 18 18 17 16 16 16 16 15 15 14 13 12 11 9 11 10 11 11 11 11 12 12 13 13 14 15 16 18 19 22 23 26
21 21 19 20 20 19 19 19 19 21 21 19 18 17 14 13 12 13 13 12 13 14 10 10 11 10 9 8 9 9 10 11 12 13 14 15 16 16 17 18 20 22 26
22 21 20 21 20 18 17 19 20 21 20 18 16 15 15 15 13 11 9 10 9 10 10 8 11 10 7 6 7 8 9 11 12 14 15 15 17 17 17 18 19 21 23
23 22 21 20 19 18 18 20 20 20 19 18 15 12 12 13 12 11 8 7 7 8 8 8 5 1 3 5 6 7 8 10 12 15 16 16 16 18 19 19 19 20 22
25 24 22 21 19 18 18 18 18 18 16 14 12 10 10 12 13 12 11 7 4 4 3 6 7 3 5 4 6 6 7 9 12 14 16 16 17 18 20 20 20 21 21
26 24 21 19 19 18 17 17 16 15 13 12 11 9 10 12 15 11 11 9 6 5 8 9 7 5 6 5 6 6 6 8 11 12 14 17 16 17 19 20 20 20 21
28 14 19 18 18 16 16 14 12 12 12 11 10 7 6 10 14 15 12 10 9 7 6 10 11 5 5 7 6 6 7 6 9 9 12 14 15 15 17 19 20 20 20
30 24 13 15 16 13 15 11 7 11 10 9 7 5 5 7 13 14 11 9 7 8 10 7 7 7 7 9 7 5 6 7 7 7 7 11 16 17 17 18 19 19 18
30 18 9 9 14 9 9 5 12 10 7 3 5 1 4 6 9 13 11 10 10 10 10 9 9 8 8 8 7 8 9 10 10 8 6 5 10 13 16 17 18 18 18
5 15 18 15 10 11 13 8 7 6 15 16 23 25 4 3 6 10 9 8 10 11 11 11 11 9 8 8 8 8 10 11 12 11 9 6 9 11 12 14 16 16 16
7 7 7 10 18 15 11 9 9 12 13 11 13 4 5 2 4 8 7 7 8 9 10 10 10 8 7 7 6 10 10 13 15 10 12 11 13 15 14 12 11 12 14
10 10 7 8 10 12 12 12 12 12 11 13 6 5 2 3 1 7 5 6 6 7 7 7 7 6 5 6 7 8 8 12 13 12 12 15 15 18 19 13 9 10 13
14 15 17 13 12 20 23 19 15 18 21 32 30 17 5 1 1 7 5 4 5 5 6 6 6 6 4 4 5 7 9 12 13 12 11 12 17 17 18 16 13 12 14
14 15 15 14 15 21 23 24 24 20 16 30 37 17 6 5 3 4 4 4 4 6 7 7 7 7 7 6 6 8 10 13 15 14 12 12 12 14 15 15 17 14 14
16 16 15 16 14 14 14 14 13 13 13 9 14 10 8 4 3 3 3 3 5 9 10 8 7 8 8 8 9 10 11 13 14 15 16 14 14 13 13 15 16 15 13
23 18 14 13 13 15 15 15 17 16 21 26 19 12 5 4 3 2 1 2 3 4 5 7 7 8 9 9 10 11 10 12 13 15 16 16 16 16 17 16 17 15 16
Wind_Direction
101 77 63 73 139 117 165 212 218 213 158 158 170 144 136 121 117 106 131 143 147 146 93 99 128 124 131 128 138 142 141 146 152 145 43 338 8 332 347 22 46 61 127
91 85 89 78 108 139 172 183 193 195 153 149 144 131 131 121 132 135 129 138 149 157 336 112 133 125 112 121 127 135 134 136 146 150 150 93 11 353 324 323 13 78 98
114 101 118 93 115 127 159 173 179 175 147 143 134 136 126 132 136 128 125 130 139 126 79 68 121 130 138 123 110 120 125 125 117 141 150 141 123 355 23 321 310 322 51
112 121 126 131 121 121 132 144 146 144 150 157 142 140 141 140 136 144 146 136 147 136 138 132 109 134 131 137 132 126 101 101 82 83 117 149 139 150 308 317 303 303 302
132 136 127 116 113 107 116 122 134 140 142 144 139 137 133 137 140 148 141 136 152 141 149 145 134 122 146 145 146 145 129 80 18 354 16 115 104 145 144 133 335 314 303
155 143 104 91 88 95 101 114 118 128 131 133 126 123 133 138 144 151 145 142 145 138 138 137 138 144 148 151 157 163 158 155 151 164 137 54 334 337 85 333 348 296 292
145 119 93 102 93 96 99 107 110 117 129 128 109 102 112 140 146 149 149 140 137 132 129 128 130 139 139 154 162 167 173 175 170 170 159 149 71 318 322 301 297 279 281
148 137 105 104 103 101 101 111 113 110 121 122 107 102 98 110 125 137 129 136 134 124 120 118 118 135 140 141 147 146 151 162 161 164 166 161 166 144 140 116 302 293 279
152 131 126 134 128 123 116 123 114 103 104 130 134 105 94 91 92 119 127 128 121 115 119 106 115 122 117 116 120 128 123 113 113 122 145 154 166 173 166 167 176 207 280
147 150 141 134 140 135 129 133 115 100 111 116 129 134 115 97 91 97 122 135 131 117 113 102 105 108 98 71 69 67 54 48 39 28 9 343 324 315 308 301 193 202 219
157 159 146 142 139 131 137 139 124 123 126 109 108 120 116 116 101 93 105 122 117 124 123 119 92 101 88 77 65 63 61 46 38 28 12 360 350 336 323 312 307 302 292
167 161 138 140 141 140 144 145 142 148 157 146 138 107 102 97 112 89 84 99 127 131 102 116 122 117 97 87 56 62 45 34 26 17 9 358 349 346 336 327 320 309 297
172 158 150 147 144 138 142 145 149 160 165 154 132 108 95 76 78 84 73 77 86 96 102 115 148 137 90 70 40 37 24 16 14 6 2 359 344 335 333 328 323 317 311
185 175 167 161 155 143 140 149 160 165 170 168 150 115 88 75 68 64 84 52 79 63 52 29 101 15 88 76 69 40 22 20 6 356 355 354 349 335 326 328 326 320 315
222 190 173 170 170 155 154 153 156 161 167 151 145 120 95 59 57 56 57 96 90 134 114 18 12 88 346 36 83 59 41 20 6 7 0 1 351 334 324 327 326 319 318
232 195 169 165 171 170 162 160 156 158 148 152 140 103 78 53 37 47 50 58 62 28 350 347 359 44 118 98 97 77 55 38 22 17 8 1 357 342 330 331 333 326 319
229 190 166 166 173 172 171 163 156 159 168 166 163 130 80 46 35 32 37 45 42 45 27 349 342 55 87 113 97 87 40 42 18 18 12 12 12 2 349 341 339 335 327
217 190 165 174 179 176 183 176 165 182 177 181 162 116 92 43 31 28 41 48 66 106 125 87 68 66 91 119 107 77 37 30 26 31 39 12 357 352 349 347 348 348 343
215 286 291 187 188 188 190 198 201 205 199 224 198 172 37 39 31 29 39 63 86 91 96 92 72 79 84 87 63 45 31 18 27 30 40 49 13 3 355 351 350 350 348
237 289 288 292 286 289 298 292 232 263 322 326 322 251 187 65 35 29 41 79 89 87 90 85 86 85 61 47 39 31 19 15 12 15 24 33 15 6 0 353 351 353 352
253 262 243 282 292 292 283 268 278 310 319 322 326 227 207 185 31 28 42 98 84 86 92 98 90 88 87 65 67 18 20 6 358 10 8 14 4 356 356 356 357 360 357
272 283 260 253 274 276 279 279 288 291 301 313 329 342 213 173 83 21 43 97 86 74 78 77 61 68 79 84 58 46 41 16 9 11 4 355 2 355 352 5 14 6 358
288 285 288 283 278 291 292 291 291 302 306 296 301 331 336 325 41 6 19 57 45 59 60 66 47 49 82 100 70 36 23 13 10 15 10 5 357 356 356 2 5 360 353
299 302 301 296 298 304 300 297 300 307 315 317 247 301 275 313 327 357 2 12 28 22 17 20 25 30 33 61 58 27 15 6 5 10 13 1 4 1 358 357 351 353 349
306 303 303 301 299 303 309 309 309 311 327 308 255 296 284 284 315 328 335 346 350 341 346 8 35 42 49 45 37 24 14 10 11 12 16 12 11 11 9 360 358 356 354
305 307 306 299 293 288 284 285 291 302 295 318 288 298 269 275 300 190 214 308 334 346 8 19 29 27 22 26 40 34 44 23 16 9 14 9 7 7 358 358 353 352 348